Location: Hannover
(52.3723°N, 9.7339°E)
Time: 10:11:57
(UTC+02:00)

ISS - Pass Details

Date: 26 March 2019
Orbit: 408 x 410 km, 51.6° (Epoch: 25 April)

Event Time Altitude Azimuth Distance (km) Brightness Sun altitude
Rises 20:58:24 0° 262° (W) 2,335 0.8 -20.0°
Reaches altitude 10° 21:00:29 10° 261° (W) 1,474 -0.4 -20.3°
Enters shadow 21:03:18 61° 243° (WSW) 470 -3.5 -20.7°
